contact:dominique.lefevre@mio.osupytheas.fr, maurice.libes@osupytheas.fr, didier.mallarino@osupytheas.fr
Project:EMSO http://www.emso-fr.org/EMSO-France
Depth: 2436.0 m
Title:EMSO Ligure Ouest : Data MII capteur MICROCAT
DateTime_Computer,Latitude,Longitude,Temperature,Conductivity,Pressure,DateTime_Instrument
DateTime_Computer,Latitude,Longitude,degC,S m-1,dbar,DateTime_Instrument
2020-08-23T00:02:47Z,42.805,6.029,13.2974,4.59978,2470.18,2020-8-23T02:03:37Z
2020-08-23T00:05:50Z,42.805,6.029,13.2974,4.59980,2470.156,2020-8-23T02:06:40Z
2020-08-23T00:08:53Z,42.805,6.029,13.2976,4.59980,2470.203,2020-8-23T02:09:43Z
2020-08-23T00:11:57Z,42.805,6.029,13.2979,4.59979,2470.194,2020-8-23T02:12:46Z
2020-08-23T00:15:00Z,42.805,6.029,13.2975,4.59982,2470.156,2020-8-23T02:15:50Z
2020-08-23T00:18:03Z,42.805,6.029,13.2980,4.59981,2470.133,2020-8-23T02:18:53Z
2020-08-23T00:21:06Z,42.805,6.029,13.2975,4.59979,2470.171,2020-8-23T02:21:56Z
2020-08-23T00:24:10Z,42.805,6.029,13.2979,4.59979,2470.156,2020-8-23T02:24:59Z
2020-08-23T00:27:13Z,42.805,6.029,13.2976,4.59978,2470.156,2020-8-23T02:28:03Z
2020-08-23T00:30:16Z,42.805,6.029,13.2976,4.59980,2470.156,2020-8-23T02:31:06Z
2020-08-23T00:33:19Z,42.805,6.029,13.2975,4.59981,2470.156,2020-8-23T02:34:09Z
2020-08-23T00:36:23Z,42.805,6.029,13.2976,4.59978,2470.133,2020-8-23T02:37:12Z
2020-08-23T00:39:26Z,42.805,6.029,13.2976,4.59980,2470.133,2020-8-23T02:40:16Z
2020-08-23T00:42:29Z,42.805,6.029,13.2976,4.59979,2470.11,2020-8-23T02:43:19Z
2020-08-23T00:45:32Z,42.805,6.029,13.2978,4.59978,2470.133,2020-8-23T02:46:22Z
2020-08-23T00:48:36Z,42.805,6.029,13.2980,4.59978,2470.147,2020-8-23T02:49:25Z
2020-08-23T00:51:39Z,42.805,6.029,13.2979,4.59978,2470.133,2020-8-23T02:52:29Z
2020-08-23T00:54:42Z,42.805,6.029,13.2976,4.59979,2470.194,2020-8-23T02:55:32Z
2020-08-23T00:57:45Z,42.805,6.029,13.2976,4.59980,2470.133,2020-8-23T02:58:35Z
2020-08-23T01:00:48Z,42.805,6.029,13.2976,4.59980,2470.147,2020-8-23T03:01:38Z
2020-08-23T01:03:52Z,42.805,6.029,13.2979,4.59978,2470.133,2020-8-23T03:04:41Z
2020-08-23T01:06:55Z,42.805,6.029,13.2978,4.59980,2470.11,2020-8-23T03:07:45Z
2020-08-23T01:09:58Z,42.805,6.029,13.2977,4.59979,2470.124,2020-8-23T03:10:48Z
2020-08-23T01:13:01Z,42.805,6.029,13.2981,4.59977,2470.133,2020-8-23T03:13:51Z
2020-08-23T01:16:05Z,42.805,6.029,13.2975,4.59979,2470.11,2020-8-23T03:16:54Z
2020-08-23T01:19:08Z,42.805,6.029,13.2976,4.59977,2470.147,2020-8-23T03:19:58Z
2020-08-23T01:22:11Z,42.805,6.029,13.2974,4.59978,2470.087,2020-8-23T03:23:01Z
2020-08-23T01:25:14Z,42.805,6.029,13.2982,4.59977,2470.11,2020-8-23T03:26:04Z
2020-08-23T01:28:18Z,42.805,6.029,13.2979,4.59978,2470.1,2020-8-23T03:29:07Z
2020-08-23T01:31:21Z,42.805,6.029,13.2978,4.59980,2470.087,2020-8-23T03:32:11Z
2020-08-23T01:34:24Z,42.805,6.029,13.2975,4.59979,2470.11,2020-8-23T03:35:14Z
2020-08-23T01:37:27Z,42.805,6.029,13.2979,4.59978,2470.087,2020-8-23T03:38:17Z
2020-08-23T01:40:31Z,42.805,6.029,13.2981,4.59978,2470.087,2020-8-23T03:41:21Z
2020-08-23T01:43:34Z,42.805,6.029,13.2978,4.59978,2470.087,2020-8-23T03:44:24Z
2020-08-23T01:46:37Z,42.805,6.029,13.2976,4.59977,2470.133,2020-8-23T03:47:27Z
2020-08-23T01:49:41Z,42.805,6.029,13.2978,4.59978,2470.11,2020-8-23T03:50:30Z
2020-08-23T01:52:44Z,42.805,6.029,13.2979,4.59977,2470.087,2020-8-23T03:53:34Z
2020-08-23T01:55:47Z,42.805,6.029,13.2974,4.59982,2470.1,2020-8-23T03:56:37Z
2020-08-23T01:58:50Z,42.805,6.029,13.2977,4.59978,2470.087,2020-8-23T03:59:40Z
2020-08-23T02:01:53Z,42.805,6.029,13.2977,4.59982,2470.077,2020-8-23T04:02:43Z
2020-08-23T02:04:57Z,42.805,6.029,13.2973,4.59978,2470.087,2020-8-23T04:05:46Z
2020-08-23T02:08:00Z,42.805,6.029,13.2981,4.59980,2470.087,2020-8-23T04:08:50Z
2020-08-23T02:11:03Z,42.805,6.029,13.2979,4.59978,2470.063,2020-8-23T04:11:53Z
2020-08-23T02:14:06Z,42.805,6.029,13.2979,4.59981,2470.077,2020-8-23T04:14:56Z
2020-08-23T02:17:10Z,42.805,6.029,13.2979,4.59979,2470.063,2020-8-23T04:18:00Z
2020-08-23T02:20:13Z,42.805,6.029,13.2978,4.59978,2470.087,2020-8-23T04:21:03Z
2020-08-23T02:23:16Z,42.805,6.029,13.2979,4.59978,2470.11,2020-8-23T04:24:06Z
2020-08-23T02:26:20Z,42.805,6.029,13.2975,4.59980,2470.063,2020-8-23T04:27:09Z
2020-08-23T02:29:23Z,42.805,6.029,13.2979,4.59978,2470.077,2020-8-23T04:30:13Z
2020-08-23T02:32:26Z,42.805,6.029,13.2982,4.59980,2470.04,2020-8-23T04:33:16Z
2020-08-23T02:35:29Z,42.805,6.029,13.2979,4.59978,2470.053,2020-8-23T04:36:19Z
2020-08-23T02:38:32Z,42.805,6.029,13.2979,4.59978,2470.063,2020-8-23T04:39:22Z
2020-08-23T02:41:36Z,42.805,6.029,13.2979,4.59976,2470.04,2020-8-23T04:42:25Z
2020-08-23T02:44:39Z,42.805,6.029,13.2980,4.59977,2470.04,2020-8-23T04:45:29Z
2020-08-23T02:47:42Z,42.805,6.029,13.2976,4.59981,2470.04,2020-8-23T04:48:32Z
2020-08-23T02:50:45Z,42.805,6.029,13.2975,4.59978,2470.04,2020-8-23T04:51:35Z
2020-08-23T02:53:49Z,42.805,6.029,13.2978,4.59978,2470.04,2020-8-23T04:54:38Z
2020-08-23T02:56:52Z,42.805,6.029,13.2978,4.59978,2470.017,2020-8-23T04:57:42Z
2020-08-23T02:59:55Z,42.805,6.029,13.2979,4.59978,2470.04,2020-8-23T05:00:45Z
2020-08-23T03:02:58Z,42.805,6.029,13.2979,4.59980,2470.03,2020-8-23T05:03:48Z
2020-08-23T03:06:01Z,42.805,6.029,13.2979,4.59979,2470.017,2020-8-23T05:06:51Z
2020-08-23T03:09:05Z,42.805,6.029,13.2976,4.59978,2470.04,2020-8-23T05:09:55Z
2020-08-23T03:12:08Z,42.805,6.029,13.2981,4.59976,2470.017,2020-8-23T05:12:58Z
2020-08-23T03:15:11Z,42.805,6.029,13.2980,4.59978,2470.053,2020-8-23T05:16:01Z
2020-08-23T03:18:15Z,42.805,6.029,13.2979,4.59978,2470.017,2020-8-23T05:19:04Z
2020-08-23T03:21:18Z,42.805,6.029,13.2978,4.59976,2470.04,2020-8-23T05:22:08Z
2020-08-23T03:24:21Z,42.805,6.029,13.2979,4.59978,2470.017,2020-8-23T05:25:11Z
2020-08-23T03:27:24Z,42.805,6.029,13.2981,4.59978,2470.017,2020-8-23T05:28:14Z
2020-08-23T03:30:27Z,42.805,6.029,13.2982,4.59976,2469.993,2020-8-23T05:31:17Z
2020-08-23T03:33:31Z,42.805,6.029,13.2982,4.59977,2470.017,2020-8-23T05:34:20Z
2020-08-23T03:36:34Z,42.805,6.029,13.2974,4.59977,2470.053,2020-8-23T05:37:24Z
2020-08-23T03:39:37Z,42.805,6.029,13.2974,4.59977,2470.017,2020-8-23T05:40:27Z
2020-08-23T03:42:40Z,42.805,6.029,13.2977,4.59978,2469.993,2020-8-23T05:43:30Z
2020-08-23T03:45:44Z,42.805,6.029,13.2976,4.59978,2469.993,2020-8-23T05:46:33Z
2020-08-23T03:48:47Z,42.805,6.029,13.2980,4.59979,2470.007,2020-8-23T05:49:37Z
2020-08-23T03:51:50Z,42.805,6.029,13.2976,4.59981,2470.017,2020-8-23T05:52:40Z
2020-08-23T03:54:53Z,42.805,6.029,13.2978,4.59981,2469.993,2020-8-23T05:55:43Z
2020-08-23T03:57:57Z,42.805,6.029,13.2979,4.59978,2469.993,2020-8-23T05:58:46Z
2020-08-23T04:01:00Z,42.805,6.029,13.2979,4.59981,2470.017,2020-8-23T06:01:50Z
2020-08-23T04:04:03Z,42.805,6.029,13.2976,4.59976,2470.007,2020-8-23T06:04:53Z
2020-08-23T04:07:06Z,42.805,6.029,13.2980,4.59978,2470.017,2020-8-23T06:07:56Z
2020-08-23T04:10:10Z,42.805,6.029,13.2979,4.59978,2469.97,2020-8-23T06:11:00Z
2020-08-23T04:13:13Z,42.805,6.029,13.2977,4.59978,2469.97,2020-8-23T06:14:03Z
2020-08-23T04:16:16Z,42.805,6.029,13.2977,4.59979,2470.007,2020-8-23T06:17:06Z
2020-08-23T04:19:19Z,42.805,6.029,13.2979,4.59977,2469.993,2020-8-23T06:20:09Z
2020-08-23T04:22:23Z,42.805,6.029,13.2979,4.59977,2469.97,2020-8-23T06:23:12Z
2020-08-23T04:25:26Z,42.805,6.029,13.2979,4.59978,2469.993,2020-8-23T06:26:16Z
2020-08-23T04:28:30Z,42.805,6.029,13.2979,4.59978,2469.993,2020-8-23T06:29:19Z
2020-08-23T04:31:33Z,42.805,6.029,13.2974,4.59978,2470.03,2020-8-23T06:32:23Z
2020-08-23T04:34:36Z,42.805,6.029,13.2975,4.59980,2469.993,2020-8-23T06:35:26Z
2020-08-23T04:37:39Z,42.805,6.029,13.2980,4.59976,2470.007,2020-8-23T06:38:29Z
2020-08-23T04:40:42Z,42.805,6.029,13.2974,4.59976,2469.993,2020-8-23T06:41:32Z
2020-08-23T04:43:46Z,42.805,6.029,13.2974,4.59976,2469.97,2020-8-23T06:44:35Z
2020-08-23T04:46:49Z,42.805,6.029,13.2979,4.59976,2469.993,2020-8-23T06:47:39Z
2020-08-23T04:49:52Z,42.805,6.029,13.2979,4.59977,2469.97,2020-8-23T06:50:42Z
2020-08-23T04:52:56Z,42.805,6.029,13.2973,4.59977,2470.007,2020-8-23T06:53:45Z
2020-08-23T04:55:59Z,42.805,6.029,13.2973,4.59976,2469.993,2020-8-23T06:56:49Z
2020-08-23T04:59:02Z,42.805,6.029,13.2979,4.59976,2470.03,2020-8-23T06:59:52Z
2020-08-23T05:02:05Z,42.805,6.029,13.2974,4.59984,2470.007,2020-8-23T07:02:55Z
2020-08-23T05:05:08Z,42.805,6.029,13.2979,4.59978,2469.984,2020-8-23T07:05:58Z
2020-08-23T05:08:12Z,42.805,6.029,13.2979,4.59976,2469.97,2020-8-23T07:09:01Z
2020-08-23T05:11:15Z,42.805,6.029,13.2976,4.59978,2470.017,2020-8-23T07:12:05Z
2020-08-23T05:14:19Z,42.805,6.029,13.2979,4.59978,2469.993,2020-8-23T07:15:08Z
2020-08-23T05:17:22Z,42.805,6.029,13.2975,4.59976,2470.017,2020-8-23T07:18:12Z
2020-08-23T05:20:25Z,42.805,6.029,13.2979,4.59978,2470.017,2020-8-23T07:21:15Z
2020-08-23T05:23:28Z,42.805,6.029,13.2974,4.59978,2469.984,2020-8-23T07:24:18Z
2020-08-23T05:26:32Z,42.805,6.029,13.2978,4.59977,2470.007,2020-8-23T07:27:21Z
2020-08-23T05:29:35Z,42.805,6.029,13.2976,4.59978,2469.993,2020-8-23T07:30:25Z
2020-08-23T05:32:38Z,42.805,6.029,13.2978,4.59982,2470.007,2020-8-23T07:33:28Z
2020-08-23T05:35:41Z,42.805,6.029,13.2976,4.59983,2469.993,2020-8-23T07:36:31Z
2020-08-23T05:38:44Z,42.805,6.029,13.2982,4.59978,2469.984,2020-8-23T07:39:34Z
2020-08-23T05:41:48Z,42.805,6.029,13.2977,4.59978,2469.993,2020-8-23T07:42:38Z
2020-08-23T05:44:51Z,42.805,6.029,13.2976,4.59978,2469.97,2020-8-23T07:45:41Z
2020-08-23T05:47:54Z,42.805,6.029,13.2982,4.59986,2469.993,2020-8-23T07:48:44Z
2020-08-23T05:50:57Z,42.805,6.029,13.2978,4.59978,2469.984,2020-8-23T07:51:47Z
2020-08-23T05:54:01Z,42.805,6.029,13.2977,4.59977,2470.03,2020-8-23T07:54:50Z
2020-08-23T05:57:04Z,42.805,6.029,13.2979,4.59978,2469.993,2020-8-23T07:57:54Z
2020-08-23T06:00:07Z,42.805,6.029,13.2979,4.59978,2469.993,2020-8-23T08:00:57Z
2020-08-23T06:03:10Z,42.805,6.029,13.2974,4.59978,2469.993,2020-8-23T08:04:00Z
2020-08-23T06:06:14Z,42.805,6.029,13.2973,4.59977,2469.993,2020-8-23T08:07:03Z
2020-08-23T06:09:17Z,42.805,6.029,13.2976,4.59978,2469.993,2020-8-23T08:10:07Z
2020-08-23T06:12:20Z,42.805,6.029,13.2977,4.59978,2470.017,2020-8-23T08:13:10Z
2020-08-23T06:15:23Z,42.805,6.029,13.2979,4.59978,2470.017,2020-8-23T08:16:13Z
2020-08-23T06:18:27Z,42.805,6.029,13.2977,4.59978,2469.97,2020-8-23T08:19:16Z
2020-08-23T06:21:30Z,42.805,6.029,13.2977,4.59979,2470.007,2020-8-23T08:22:20Z
2020-08-23T06:24:33Z,42.805,6.029,13.2977,4.59978,2470.04,2020-8-23T08:25:23Z
2020-08-23T06:27:36Z,42.805,6.029,13.2973,4.59978,2470.007,2020-8-23T08:28:26Z
2020-08-23T06:30:40Z,42.805,6.029,13.2982,4.59978,2470.04,2020-8-23T08:31:30Z
2020-08-23T06:33:43Z,42.805,6.029,13.2976,4.59978,2470.053,2020-8-23T08:34:33Z
2020-08-23T06:36:46Z,42.805,6.029,13.2979,4.59978,2470.04,2020-8-23T08:37:36Z
2020-08-23T06:39:50Z,42.805,6.029,13.2982,4.59978,2470.053,2020-8-23T08:40:39Z
2020-08-23T06:42:53Z,42.805,6.029,13.2975,4.59978,2470.063,2020-8-23T08:43:43Z
2020-08-23T06:45:56Z,42.805,6.029,13.2975,4.59978,2470.04,2020-8-23T08:46:46Z
2020-08-23T06:48:59Z,42.805,6.029,13.2975,4.59985,2470.04,2020-8-23T08:49:49Z
2020-08-23T06:52:02Z,42.805,6.029,13.2979,4.59978,2470.053,2020-8-23T08:52:52Z
2020-08-23T06:55:06Z,42.805,6.029,13.2976,4.59978,2470.04,2020-8-23T08:55:55Z
2020-08-23T06:58:09Z,42.805,6.029,13.2976,4.59978,2470.053,2020-8-23T08:58:59Z
2020-08-23T07:01:12Z,42.805,6.029,13.2979,4.59978,2470.077,2020-8-23T09:02:02Z
2020-08-23T07:04:15Z,42.805,6.029,13.2979,4.59978,2470.017,2020-8-23T09:05:05Z
2020-08-23T07:07:19Z,42.805,6.029,13.2976,4.59986,2470.053,2020-8-23T09:08:08Z
2020-08-23T07:10:22Z,42.805,6.029,13.2979,4.59977,2470.077,2020-8-23T09:11:12Z
2020-08-23T07:13:25Z,42.805,6.029,13.2979,4.59977,2470.053,2020-8-23T09:14:15Z
2020-08-23T07:16:28Z,42.805,6.029,13.2982,4.59983,2470.063,2020-8-23T09:17:18Z
2020-08-23T07:19:32Z,42.805,6.029,13.2980,4.59978,2470.091,2020-8-23T09:20:21Z
2020-08-23T07:22:35Z,42.805,6.029,13.2982,4.59989,2470.063,2020-8-23T09:23:25Z
2020-08-23T07:25:38Z,42.805,6.029,13.2979,4.59979,2470.04,2020-8-23T09:26:28Z
2020-08-23T07:28:41Z,42.805,6.029,13.2975,4.59985,2470.077,2020-8-23T09:29:31Z
2020-08-23T07:31:45Z,42.805,6.029,13.2976,4.59979,2470.063,2020-8-23T09:32:35Z
2020-08-23T07:34:48Z,42.805,6.029,13.2976,4.59979,2470.077,2020-8-23T09:35:38Z
2020-08-23T07:37:51Z,42.805,6.029,13.2979,4.59979,2470.077,2020-8-23T09:38:41Z
2020-08-23T07:40:54Z,42.805,6.029,13.2977,4.59978,2470.087,2020-8-23T09:41:44Z
2020-08-23T07:43:58Z,42.805,6.029,13.2976,4.59979,2470.063,2020-8-23T09:44:47Z
2020-08-23T07:47:01Z,42.805,6.029,13.2978,4.59986,2470.1,2020-8-23T09:47:51Z
2020-08-23T07:50:04Z,42.805,6.029,13.2977,4.59978,2470.1,2020-8-23T09:50:54Z
2020-08-23T07:53:07Z,42.805,6.029,13.2976,4.59980,2470.1,2020-8-23T09:53:57Z
2020-08-23T07:56:10Z,42.805,6.029,13.2978,4.59978,2470.11,2020-8-23T09:57:00Z
2020-08-23T07:59:14Z,42.805,6.029,13.2976,4.59978,2470.1,2020-8-23T10:00:04Z
2020-08-23T08:02:17Z,42.805,6.029,13.2981,4.59983,2470.087,2020-8-23T10:03:07Z
2020-08-23T08:05:20Z,42.805,6.029,13.2978,4.59980,2470.11,2020-8-23T10:06:10Z
2020-08-23T08:08:23Z,42.805,6.029,13.2979,4.59981,2470.11,2020-8-23T10:09:13Z
2020-08-23T08:11:27Z,42.805,6.029,13.2977,4.59979,2470.11,2020-8-23T10:12:17Z
2020-08-23T08:14:30Z,42.805,6.029,13.2978,4.59980,2470.156,2020-8-23T10:15:20Z
2020-08-23T08:17:33Z,42.805,6.029,13.2977,4.59981,2470.087,2020-8-23T10:18:23Z
2020-08-23T08:20:37Z,42.805,6.029,13.2978,4.59980,2470.11,2020-8-23T10:21:26Z
2020-08-23T08:23:40Z,42.805,6.029,13.2980,4.59981,2470.133,2020-8-23T10:24:30Z
2020-08-23T08:26:43Z,42.805,6.029,13.2976,4.59980,2470.124,2020-8-23T10:27:33Z
2020-08-23T08:29:46Z,42.805,6.029,13.2978,4.59980,2470.133,2020-8-23T10:30:36Z
2020-08-23T08:32:49Z,42.805,6.029,13.2976,4.59981,2470.156,2020-8-23T10:33:39Z
2020-08-23T08:35:53Z,42.805,6.029,13.2980,4.59981,2470.133,2020-8-23T10:36:43Z
2020-08-23T08:38:56Z,42.805,6.029,13.2974,4.59980,2470.133,2020-8-23T10:39:46Z
2020-08-23T08:41:59Z,42.805,6.029,13.2978,4.59983,2470.133,2020-8-23T10:42:49Z
2020-08-23T08:45:03Z,42.805,6.029,13.2977,4.59979,2470.133,2020-8-23T10:45:52Z
2020-08-23T08:48:06Z,42.805,6.029,13.2976,4.59983,2470.133,2020-8-23T10:48:56Z
2020-08-23T08:51:09Z,42.805,6.029,13.2975,4.59983,2470.147,2020-8-23T10:51:59Z
2020-08-23T08:54:12Z,42.805,6.029,13.2976,4.59983,2470.156,2020-8-23T10:55:02Z
2020-08-23T08:57:15Z,42.805,6.029,13.2980,4.59983,2470.171,2020-8-23T10:58:05Z
2020-08-23T09:00:19Z,42.805,6.029,13.2976,4.59984,2470.171,2020-8-23T11:01:09Z
2020-08-23T09:03:22Z,42.805,6.029,13.2977,4.59981,2470.18,2020-8-23T11:04:12Z
2020-08-23T09:06:25Z,42.805,6.029,13.2975,4.59978,2470.133,2020-8-23T11:07:15Z
2020-08-23T09:09:28Z,42.805,6.029,13.2975,4.59979,2470.133,2020-8-23T11:10:18Z
2020-08-23T09:12:32Z,42.805,6.029,13.2975,4.59980,2470.156,2020-8-23T11:13:21Z
2020-08-23T09:15:35Z,42.805,6.029,13.2977,4.59980,2470.194,2020-8-23T11:16:25Z
2020-08-23T09:18:38Z,42.805,6.029,13.2975,4.59981,2470.147,2020-8-23T11:19:28Z
2020-08-23T09:21:41Z,42.805,6.029,13.2978,4.59982,2470.171,2020-8-23T11:22:31Z
2020-08-23T09:24:45Z,42.805,6.029,13.2980,4.59979,2470.156,2020-8-23T11:25:35Z
2020-08-23T09:27:48Z,42.805,6.029,13.2979,4.59979,2470.156,2020-8-23T11:28:38Z
2020-08-23T09:30:51Z,42.805,6.029,13.2980,4.59981,2470.156,2020-8-23T11:31:41Z
2020-08-23T09:33:54Z,42.805,6.029,13.2980,4.59981,2470.133,2020-8-23T11:34:44Z
2020-08-23T09:36:58Z,42.805,6.029,13.2975,4.59980,2470.143,2020-8-23T11:37:47Z
2020-08-23T09:40:01Z,42.805,6.029,13.2981,4.59980,2470.156,2020-8-23T11:40:51Z
2020-08-23T09:43:04Z,42.805,6.029,13.2979,4.59985,2470.194,2020-8-23T11:43:54Z
2020-08-23T09:46:07Z,42.805,6.029,13.2979,4.59978,2470.171,2020-8-23T11:46:57Z
2020-08-23T09:49:10Z,42.805,6.029,13.2976,4.59978,2470.18,2020-8-23T11:50:00Z
2020-08-23T09:52:14Z,42.805,6.029,13.2976,4.59982,2470.194,2020-8-23T11:53:04Z
2020-08-23T09:55:17Z,42.805,6.029,13.2972,4.59978,2470.156,2020-8-23T11:56:07Z
2020-08-23T09:58:20Z,42.805,6.029,13.2979,4.59978,2470.171,2020-8-23T11:59:10Z
2020-08-23T10:01:23Z,42.805,6.029,13.2975,4.59976,2470.194,2020-8-23T12:02:13Z
2020-08-23T10:04:27Z,42.805,6.029,13.2976,4.59980,2470.18,2020-8-23T12:05:17Z
2020-08-23T10:07:30Z,42.805,6.029,13.2973,4.59983,2470.217,2020-8-23T12:08:20Z
2020-08-23T10:10:33Z,42.805,6.029,13.2975,4.59981,2470.133,2020-8-23T12:11:23Z
2020-08-23T10:13:37Z,42.805,6.029,13.2979,4.59980,2470.194,2020-8-23T12:14:26Z
2020-08-23T10:16:40Z,42.805,6.029,13.2978,4.59984,2470.171,2020-8-23T12:17:30Z
2020-08-23T10:19:43Z,42.805,6.029,13.2979,4.59981,2470.156,2020-8-23T12:20:33Z
2020-08-23T10:22:46Z,42.805,6.029,13.2976,4.59982,2470.156,2020-8-23T12:23:36Z
2020-08-23T10:25:50Z,42.805,6.029,13.2979,4.59986,2470.171,2020-8-23T12:26:39Z
2020-08-23T10:28:53Z,42.805,6.029,13.2974,4.59981,2470.156,2020-8-23T12:29:43Z
2020-08-23T10:31:56Z,42.805,6.029,13.2979,4.59979,2470.156,2020-8-23T12:32:46Z
2020-08-23T10:34:59Z,42.805,6.029,13.2974,4.59983,2470.133,2020-8-23T12:35:49Z
2020-08-23T10:38:03Z,42.805,6.029,13.2979,4.59979,2470.133,2020-8-23T12:38:52Z
2020-08-23T10:41:06Z,42.805,6.029,13.2976,4.59980,2470.147,2020-8-23T12:41:56Z
2020-08-23T10:44:09Z,42.805,6.029,13.2975,4.59981,2470.156,2020-8-23T12:44:59Z
2020-08-23T10:47:12Z,42.805,6.029,13.2977,4.59980,2470.171,2020-8-23T12:48:02Z
2020-08-23T10:50:15Z,42.805,6.029,13.2978,4.59982,2470.133,2020-8-23T12:51:05Z
2020-08-23T10:53:19Z,42.805,6.029,13.2979,4.59979,2470.133,2020-8-23T12:54:09Z
2020-08-23T10:56:22Z,42.805,6.029,13.2978,4.59980,2470.156,2020-8-23T12:57:12Z
2020-08-23T10:59:25Z,42.805,6.029,13.2975,4.59978,2470.133,2020-8-23T13:00:15Z
2020-08-23T11:02:28Z,42.805,6.029,13.2978,4.59981,2470.133,2020-8-23T13:03:18Z
2020-08-23T11:05:32Z,42.805,6.029,13.2979,4.59980,2470.147,2020-8-23T13:06:22Z
2020-08-23T11:08:35Z,42.805,6.029,13.2974,4.59981,2470.133,2020-8-23T13:09:25Z
2020-08-23T11:11:39Z,42.805,6.029,13.2978,4.59981,2470.11,2020-8-23T13:12:28Z
2020-08-23T11:14:42Z,42.805,6.029,13.2974,4.59980,2470.133,2020-8-23T13:15:32Z
2020-08-23T11:17:45Z,42.805,6.029,13.2977,4.59979,2470.133,2020-8-23T13:18:35Z
2020-08-23T11:20:48Z,42.805,6.029,13.2977,4.59981,2470.156,2020-8-23T13:21:38Z
2020-08-23T11:23:51Z,42.805,6.029,13.2977,4.59981,2470.18,2020-8-23T13:24:41Z
2020-08-23T11:26:55Z,42.805,6.029,13.2978,4.59981,2470.133,2020-8-23T13:27:45Z
2020-08-23T11:29:58Z,42.805,6.029,13.2976,4.59982,2470.133,2020-8-23T13:30:48Z
2020-08-23T11:33:01Z,42.805,6.029,13.2974,4.59978,2470.147,2020-8-23T13:33:51Z
2020-08-23T11:36:04Z,42.805,6.029,13.2982,4.59984,2470.156,2020-8-23T13:36:54Z
2020-08-23T11:39:08Z,42.805,6.029,13.2974,4.59983,2470.147,2020-8-23T13:39:57Z
2020-08-23T11:42:11Z,42.805,6.029,13.2976,4.59978,2470.147,2020-8-23T13:43:01Z
2020-08-23T11:45:14Z,42.805,6.029,13.2982,4.59980,2470.156,2020-8-23T13:46:04Z
2020-08-23T11:48:17Z,42.805,6.029,13.2977,4.59983,2470.11,2020-8-23T13:49:07Z
2020-08-23T11:51:21Z,42.805,6.029,13.2980,4.59982,2470.124,2020-8-23T13:52:10Z
2020-08-23T11:54:24Z,42.805,6.029,13.2977,4.59983,2470.11,2020-8-23T13:55:14Z
2020-08-23T11:57:27Z,42.805,6.029,13.2979,4.59979,2470.124,2020-8-23T13:58:17Z
2020-08-23T12:00:31Z,42.805,6.029,13.2977,4.59982,2470.11,2020-8-23T14:01:20Z
2020-08-23T12:03:34Z,42.805,6.029,13.2981,4.59979,2470.087,2020-8-23T14:04:24Z
2020-08-23T12:06:37Z,42.805,6.029,13.2975,4.59983,2470.1,2020-8-23T14:07:27Z
2020-08-23T12:09:40Z,42.805,6.029,13.2976,4.59981,2470.1,2020-8-23T14:10:30Z
2020-08-23T12:12:44Z,42.805,6.029,13.2980,4.59978,2470.124,2020-8-23T14:13:33Z
2020-08-23T12:15:47Z,42.805,6.029,13.2977,4.59982,2470.087,2020-8-23T14:16:37Z
2020-08-23T12:18:50Z,42.805,6.029,13.2979,4.59978,2470.063,2020-8-23T14:19:40Z
2020-08-23T12:21:53Z,42.805,6.029,13.2975,4.59978,2470.11,2020-8-23T14:22:43Z
2020-08-23T12:24:57Z,42.805,6.029,13.2979,4.59978,2470.077,2020-8-23T14:25:47Z
2020-08-23T12:28:00Z,42.805,6.029,13.2974,4.59979,2470.11,2020-8-23T14:28:50Z
2020-08-23T12:31:03Z,42.805,6.029,13.2977,4.59978,2470.133,2020-8-23T14:31:53Z
2020-08-23T12:34:07Z,42.805,6.029,13.2975,4.59980,2470.087,2020-8-23T14:34:56Z
2020-08-23T12:37:10Z,42.805,6.029,13.2977,4.59980,2470.087,2020-8-23T14:38:00Z
2020-08-23T12:40:13Z,42.805,6.029,13.2978,4.59981,2470.087,2020-8-23T14:41:03Z
2020-08-23T12:43:16Z,42.805,6.029,13.2977,4.59978,2470.063,2020-8-23T14:44:06Z
2020-08-23T12:46:20Z,42.805,6.029,13.2974,4.59980,2470.1,2020-8-23T14:47:09Z
2020-08-23T12:49:23Z,42.805,6.029,13.2976,4.59981,2470.11,2020-8-23T14:50:13Z
2020-08-23T12:52:26Z,42.805,6.029,13.2971,4.59978,2470.087,2020-8-23T14:53:16Z
2020-08-23T12:55:29Z,42.805,6.029,13.2976,4.59979,2470.1,2020-8-23T14:56:19Z
2020-08-23T12:58:33Z,42.805,6.029,13.2976,4.59981,2470.087,2020-8-23T14:59:22Z
2020-08-23T13:01:36Z,42.805,6.029,13.2979,4.59982,2470.063,2020-8-23T15:02:26Z
2020-08-23T13:04:39Z,42.805,6.029,13.2976,4.59979,2470.063,2020-8-23T15:05:29Z
2020-08-23T13:07:42Z,42.805,6.029,13.2979,4.59978,2470.063,2020-8-23T15:08:32Z
2020-08-23T13:10:46Z,42.805,6.029,13.2979,4.59978,2470.11,2020-8-23T15:11:35Z
2020-08-23T13:13:49Z,42.805,6.029,13.2976,4.59981,2470.087,2020-8-23T15:14:39Z
2020-08-23T13:16:52Z,42.805,6.029,13.2979,4.59981,2470.1,2020-8-23T15:17:42Z
2020-08-23T13:19:55Z,42.805,6.029,13.2974,4.59981,2470.1,2020-8-23T15:20:45Z
2020-08-23T13:22:59Z,42.805,6.029,13.2977,4.59979,2470.087,2020-8-23T15:23:48Z
2020-08-23T13:26:02Z,42.805,6.029,13.2976,4.59979,2470.1,2020-8-23T15:26:52Z
2020-08-23T13:29:05Z,42.805,6.029,13.2979,4.59981,2470.053,2020-8-23T15:29:55Z
2020-08-23T13:32:09Z,42.805,6.029,13.2979,4.59980,2470.087,2020-8-23T15:32:58Z
2020-08-23T13:35:12Z,42.805,6.029,13.2976,4.59981,2470.063,2020-8-23T15:36:02Z
2020-08-23T13:38:15Z,42.805,6.029,13.2978,4.59979,2470.053,2020-8-23T15:39:05Z
2020-08-23T13:41:18Z,42.805,6.029,13.2979,4.59981,2470.1,2020-8-23T15:42:08Z
2020-08-23T13:44:22Z,42.805,6.029,13.2976,4.59982,2470.063,2020-8-23T15:45:11Z
2020-08-23T13:47:25Z,42.805,6.029,13.2980,4.59978,2470.04,2020-8-23T15:48:15Z
2020-08-23T13:50:28Z,42.805,6.029,13.2978,4.59979,2470.053,2020-8-23T15:51:18Z
2020-08-23T13:53:31Z,42.805,6.029,13.2976,4.59981,2470.04,2020-8-23T15:54:21Z
2020-08-23T13:56:35Z,42.805,6.029,13.2980,4.59978,2470.063,2020-8-23T15:57:25Z
2020-08-23T13:59:38Z,42.805,6.029,13.2978,4.59978,2470.03,2020-8-23T16:00:28Z
2020-08-23T14:02:41Z,42.805,6.029,13.2980,4.59982,2470.04,2020-8-23T16:03:31Z
2020-08-23T14:05:45Z,42.805,6.029,13.2977,4.59978,2470.017,2020-8-23T16:06:34Z
2020-08-23T14:08:48Z,42.805,6.029,13.2978,4.59978,2470.04,2020-8-23T16:09:38Z
2020-08-23T14:11:51Z,42.805,6.029,13.2977,4.59978,2470.04,2020-8-23T16:12:41Z
2020-08-23T14:14:54Z,42.805,6.029,13.2976,4.59981,2470.017,2020-8-23T16:15:44Z
2020-08-23T14:17:57Z,42.805,6.029,13.2974,4.59978,2470.04,2020-8-23T16:18:47Z
2020-08-23T14:21:01Z,42.805,6.029,13.2978,4.59981,2470.063,2020-8-23T16:21:51Z
2020-08-23T14:24:04Z,42.805,6.029,13.2976,4.59979,2470.04,2020-8-23T16:24:54Z
2020-08-23T14:27:07Z,42.805,6.029,13.2976,4.59977,2470.017,2020-8-23T16:27:57Z
2020-08-23T14:30:10Z,42.805,6.029,13.2978,4.59978,2470.03,2020-8-23T16:31:00Z
2020-08-23T14:33:14Z,42.805,6.029,13.2975,4.59978,2470.04,2020-8-23T16:34:03Z
2020-08-23T14:36:17Z,42.805,6.029,13.2972,4.59981,2470.03,2020-8-23T16:37:07Z
2020-08-23T14:39:20Z,42.805,6.029,13.2979,4.59978,2470.017,2020-8-23T16:40:10Z
2020-08-23T14:42:23Z,42.805,6.029,13.2979,4.59978,2470.03,2020-8-23T16:43:13Z
2020-08-23T14:45:27Z,42.805,6.029,13.2976,4.59978,2470.03,2020-8-23T16:46:16Z
2020-08-23T14:48:30Z,42.805,6.029,13.2978,4.59977,2470.017,2020-8-23T16:49:20Z
2020-08-23T14:51:33Z,42.805,6.029,13.2976,4.59977,2470.03,2020-8-23T16:52:23Z
2020-08-23T14:54:36Z,42.805,6.029,13.2977,4.59980,2470.03,2020-8-23T16:55:26Z
2020-08-23T14:57:40Z,42.805,6.029,13.2981,4.59981,2470.017,2020-8-23T16:58:30Z
2020-08-23T15:00:43Z,42.805,6.029,13.2976,4.59980,2470.03,2020-8-23T17:01:33Z
2020-08-23T15:03:46Z,42.805,6.029,13.2974,4.59979,2470.04,2020-8-23T17:04:36Z
2020-08-23T15:06:50Z,42.805,6.029,13.2976,4.59978,2470.007,2020-8-23T17:07:39Z
2020-08-23T15:09:53Z,42.805,6.029,13.2978,4.59978,2470.007,2020-8-23T17:10:43Z
2020-08-23T15:12:56Z,42.805,6.029,13.2979,4.59978,2470.03,2020-8-23T17:13:46Z
2020-08-23T15:15:59Z,42.805,6.029,13.2976,4.59978,2470.017,2020-8-23T17:16:49Z